OBJECT BF, 67755

Orbit data source: Space-Track

You're viewing an Uncataloged Satellite

Recently launched and/or uncataloged satellites may have evolving metadata. Metadata may include but not limited to: Owner, Maufacturer, Bus, Motor, and Mission.

OBJECT BF, 67755 is a satellite in SSO that was launched on Sun, 28 Dec 2025 UTC via a SOYUZ-2-1B launch vehicle from the Vostochny Cosmodrome (VOSTO). Unknown objects in Earth's orbit typically refer to objects detected orbiting the Earth but have not yet been identified or cataloged. These objects could be anything from previously untracked satellites, spent rocket stages, debris from satellite collisions, or even natural meteoroids temporarily captured by Earth's gravity.

Loading next visibility...
Identifier
67755, 2025-313BF
Orbit
SSO
Country
Flag of TBDTBD
Related business
None
Manufacturer
Unknown
Mission
Operational spacecraft
Bus & Motor
Unknown
Mass
Unknown
Launch date (UTC)
2025-12-28 (6 months ago)
Launch vehicle
SOYUZ-2-1B
Launch site
Vostochny Cosmodrome (VOSTO)
Object type
Unknown
Shape & HBR
Unknown shape, 0.1 m
Radar Cross Section
Medium (>0.1 m² and <1 m²)

Expand to show TLE details & history
Last TLE update: 1 day ago

TLE from 1 day ago
0 OBJECT BF
1 67755U 25313BF  26170.71369317  .00017444  00000-0  28297-3 0  9998
2 67755  97.3850 248.4131 0006455 261.8110  98.2411 15.52797788 22217
Epoch: 2026-06-19T17:07Z
TLE epoch observation values (Epoch: 2026-06-19T17:07:43.089Z)
Latitude
-0.00004°
Longitude
83.54485°
Altitude
412.328 km
Speed
7.663 km/s
True Right ascension
16h 33m 39s
True Declination
0° 00' 00"
Sunlit
Object was in full shadow at epoch
Visualization orbit readout
Latitude
Unknown
Longitude
Unknown
Altitude
Unknown
Speed
Unknown
Apparent Right ascension
Unknown
Apparent Declination
Unknown
Sunlit
N/A
Visualization observer readout
Local Sidereal Time
08:41:59
Azimuth
Unknown
Elevation
Unknown
Doppler factor
Unknown
Orbital elements
Apogee altitude
409.862 km
Perigee altitude
401.104 km
Semi-major axis
6,783.62 km
Eccentricity
0.00065
Inclination
97.385°
RAAN
248.4131°
Arg. of periapsis
261.811°
True anomaly
98.3143°
Mean anomaly
98.2411°
Eccentric anomaly
98.2777°
Mean motion
3.88464 °/min
Orbital period
92.67 mins
BSTAR
0.00028297
Loading maneuver chart data...
Computing Atmospheric mass density...
Loading historical data...
Loading historical data...
Loading historical data...
Loading historical data...
Loading historical data...
Loading historical data...
Loading historical data...

Documentation

Showing up to 5 results
|